timestamp,wind_dir_avg,wind_spd_avg,wind_spd_max_dir,wind_spd_gust,battery_voltage,lat,long
2021-10-09 00:04:01+00:00,6.0,12.18,2.0,14.1,12.65,47.59359,-54.27349
2021-10-09 00:14:01+00:00,8.0,12.77,8.0,15.22,12.65,47.59359,-54.27349
2021-10-09 00:24:01+00:00,5.0,13.34,14.0,16.31,12.65,47.59359,-54.27349
2021-10-09 00:34:01+00:00,3.0,14.12,3.0,16.66,12.65,47.59359,-54.27349
2021-10-09 00:44:01+00:00,7.0,14.69,5.0,17.66,12.65,47.59359,-54.27349
2021-10-09 00:54:01+00:00,2.0,14.91,0.0,17.03,12.65,47.59359,-54.27349
2021-10-09 01:04:01+00:00,2.0,14.49,358.0,16.76,12.65,47.59359,-54.27349
2021-10-09 01:14:01+00:00,2.0,13.65,0.0,16.63,12.57,47.59359,-54.27349
2021-10-09 01:24:01+00:00,7.0,15.53,9.0,19.55,12.57,47.59359,-54.27349
2021-10-09 01:34:01+00:00,4.0,16.28,7.0,20.08,12.57,47.59359,-54.27349
2021-10-09 01:44:01+00:00,8.0,13.13,3.0,15.44,12.57,47.59359,-54.27349
2021-10-09 01:54:01+00:00,358.0,13.56,359.0,16.35,12.57,47.59359,-54.27349
2021-10-09 02:04:01+00:00,11.0,13.18,11.0,15.7,12.57,47.59359,-54.27349
2021-10-09 02:14:01+00:00,14.0,14.44,14.0,16.21,12.57,47.59359,-54.27349
2021-10-09 02:24:01+00:00,11.0,14.14,16.0,15.8,12.57,47.59359,-54.27349
2021-10-09 02:34:01+00:00,3.0,14.18,4.0,17.74,12.57,47.59359,-54.27349
2021-10-09 02:44:01+00:00,356.0,15.2,344.0,19.04,12.57,47.59359,-54.27349
2021-10-09 02:54:01+00:00,2.0,16.64,6.0,18.52,12.57,47.59359,-54.27349
2021-10-09 03:04:01+00:00,2.0,14.94,8.0,18.38,12.57,47.59359,-54.27349
2021-10-09 03:14:00+00:00,8.0,14.62,4.0,17.42,12.57,47.59359,-54.27349
2021-10-09 03:24:00+00:00,5.0,15.78,11.0,19.5,12.57,47.59359,-54.27349
2021-10-09 03:34:00+00:00,7.0,16.69,2.0,19.72,12.57,47.59359,-54.27349
2021-10-09 03:44:00+00:00,7.0,17.98,7.0,21.23,12.57,47.59359,-54.27349
2021-10-09 03:54:00+00:00,4.0,16.3,2.0,19.75,12.57,47.59359,-54.27349
2021-10-09 04:04:00+00:00,8.0,16.08,10.0,18.35,12.57,47.59359,-54.27349
2021-10-09 04:14:01+00:00,6.0,16.82,9.0,21.85,12.57,47.59359,-54.27349
2021-10-09 04:24:01+00:00,3.0,19.44,2.0,22.98,12.57,47.59359,-54.27349
2021-10-09 04:34:01+00:00,356.0,18.12,354.0,21.67,12.57,47.59359,-54.27349
2021-10-09 04:44:01+00:00,10.0,14.41,11.0,17.58,12.57,47.59359,-54.27349
2021-10-09 04:54:01+00:00,5.0,15.48,3.0,18.24,12.57,47.59359,-54.27349
2021-10-09 05:04:01+00:00,2.0,16.47,1.0,19.63,12.57,47.59359,-54.27349
2021-10-09 05:14:01+00:00,356.0,16.37,4.0,22.28,12.49,47.59359,-54.27349
2021-10-09 05:24:01+00:00,358.0,15.66,345.0,19.07,12.49,47.59359,-54.27349
2021-10-09 05:34:01+00:00,1.0,15.87,354.0,18.82,12.49,47.59359,-54.27349
2021-10-09 05:44:01+00:00,359.0,16.04,348.0,22.36,12.49,47.59359,-54.27349
2021-10-09 05:54:01+00:00,2.0,17.56,1.0,20.22,12.49,47.59359,-54.27349
2021-10-09 06:04:01+00:00,5.0,16.75,6.0,19.16,12.49,47.59359,-54.27349
2021-10-09 06:14:01+00:00,358.0,17.28,2.0,20.32,12.49,47.59359,-54.27349
2021-10-09 06:24:01+00:00,351.0,17.37,346.0,23.91,12.49,47.59359,-54.27349
2021-10-09 06:34:01+00:00,3.0,17.47,3.0,20.59,12.49,47.59359,-54.27349
2021-10-09 06:44:01+00:00,347.0,17.89,342.0,21.77,12.49,47.59359,-54.27349
2021-10-09 06:54:01+00:00,357.0,16.75,3.0,19.7,12.49,47.59359,-54.27349
2021-10-09 07:04:01+00:00,359.0,16.3,345.0,18.23,12.49,47.59359,-54.27349
2021-10-09 07:14:01+00:00,4.0,16.25,2.0,20.56,12.49,47.59359,-54.27349
2021-10-09 07:24:01+00:00,8.0,15.69,9.0,18.26,12.49,47.59359,-54.27349
2021-10-09 07:34:01+00:00,1.0,14.58,344.0,18.83,12.49,47.59359,-54.27349
2021-10-09 07:44:01+00:00,1.0,16.49,6.0,19.43,12.49,47.59359,-54.27349
2021-10-09 07:54:01+00:00,6.0,17.03,7.0,21.45,12.49,47.59359,-54.27349
2021-10-09 08:04:01+00:00,4.0,15.16,11.0,17.27,12.49,47.59359,-54.27349
2021-10-09 08:14:01+00:00,0.0,16.14,7.0,19.22,12.41,47.59359,-54.27349
2021-10-09 08:24:01+00:00,0.0,15.91,4.0,20.0,12.41,47.59359,-54.27349
2021-10-09 08:34:01+00:00,1.0,14.42,4.0,17.79,12.41,47.59359,-54.27349
2021-10-09 08:44:01+00:00,7.0,15.97,1.0,18.85,12.41,47.59359,-54.27349
2021-10-09 08:54:01+00:00,4.0,15.59,2.0,18.89,12.41,47.59359,-54.27349
2021-10-09 09:04:01+00:00,6.0,16.12,353.0,19.88,12.41,47.59359,-54.27349
2021-10-09 09:14:01+00:00,359.0,15.42,343.0,18.01,12.41,47.59359,-54.27349
2021-10-09 09:24:01+00:00,4.0,15.78,3.0,19.21,12.41,47.59359,-54.27349
2021-10-09 09:34:01+00:00,2.0,16.57,1.0,20.03,12.41,47.59359,-54.27349
2021-10-09 09:44:01+00:00,0.0,18.08,1.0,22.11,12.41,47.59359,-54.27349
2021-10-09 09:54:01+00:00,1.0,17.05,359.0,21.07,12.41,47.59359,-54.27349
2021-10-09 10:04:01+00:00,359.0,16.0,0.0,19.65,12.41,47.59359,-54.27349
2021-10-09 10:14:00+00:00,3.0,17.86,4.0,20.04,12.33,47.59359,-54.27349
2021-10-09 10:24:00+00:00,2.0,16.43,9.0,20.04,12.33,47.59359,-54.27349
2021-10-09 10:34:00+00:00,3.0,17.29,2.0,19.67,12.33,47.59359,-54.27349
2021-10-09 10:44:00+00:00,347.0,17.93,345.0,22.23,12.33,47.59359,-54.27349
2021-10-09 10:54:00+00:00,355.0,17.18,1.0,20.1,12.33,47.59359,-54.27349
2021-10-09 11:04:00+00:00,2.0,16.31,344.0,20.18,12.33,47.59359,-54.27349
2021-10-09 11:14:01+00:00,359.0,16.16,350.0,19.36,12.57,47.59359,-54.27349
2021-10-09 11:24:01+00:00,357.0,17.51,345.0,20.36,12.57,47.59359,-54.27349
2021-10-09 11:34:01+00:00,357.0,14.26,356.0,16.21,12.57,47.59359,-54.27349
2021-10-09 11:44:01+00:00,346.0,17.93,349.0,21.58,12.57,47.59359,-54.27349
2021-10-09 11:54:01+00:00,348.0,14.53,2.0,18.54,12.57,47.59359,-54.27349
2021-10-09 12:04:01+00:00,352.0,15.82,348.0,20.8,12.57,47.59359,-54.27349
2021-10-09 12:14:01+00:00,344.0,16.78,347.0,19.17,13.6,47.59359,-54.27349
2021-10-09 12:24:01+00:00,348.0,17.55,351.0,19.9,13.6,47.59359,-54.27349
2021-10-09 12:34:01+00:00,355.0,16.33,355.0,19.72,13.6,47.59359,-54.27349
2021-10-09 12:44:01+00:00,357.0,17.96,350.0,23.36,13.6,47.59359,-54.27349
2021-10-09 12:54:01+00:00,359.0,19.14,4.0,23.68,13.6,47.59359,-54.27349
2021-10-09 13:04:01+00:00,0.0,17.13,4.0,20.07,13.6,47.59359,-54.27349
2021-10-09 13:14:01+00:00,2.0,16.54,1.0,19.81,13.68,47.59359,-54.27349
2021-10-09 13:24:01+00:00,358.0,15.57,2.0,19.39,13.68,47.59359,-54.27349
2021-10-09 13:34:01+00:00,7.0,17.01,351.0,20.51,13.68,47.59359,-54.27349
2021-10-09 13:44:01+00:00,4.0,13.3,2.0,16.66,13.68,47.59359,-54.27349
2021-10-09 13:54:01+00:00,10.0,14.69,12.0,18.41,13.68,47.59359,-54.27349
2021-10-09 14:04:01+00:00,5.0,17.41,11.0,19.68,13.68,47.59359,-54.27349
2021-10-09 14:14:01+00:00,5.0,14.81,1.0,17.8,14.0,47.59359,-54.27349
2021-10-09 14:24:01+00:00,2.0,17.54,5.0,20.3,14.0,47.59359,-54.27349
2021-10-09 14:34:01+00:00,10.0,16.67,8.0,19.94,14.0,47.59359,-54.27349
2021-10-09 14:44:01+00:00,353.0,15.33,357.0,17.8,14.0,47.59359,-54.27349
2021-10-09 14:54:01+00:00,8.0,17.09,9.0,19.65,14.0,47.59359,-54.27349
2021-10-09 15:04:01+00:00,8.0,16.69,22.0,19.96,14.0,47.59359,-54.27349
2021-10-09 15:14:01+00:00,3.0,13.86,3.0,17.03,14.24,47.59359,-54.27349
2021-10-09 15:24:01+00:00,5.0,15.86,4.0,19.06,14.24,47.59359,-54.27349
2021-10-09 15:34:01+00:00,7.0,15.27,6.0,18.98,14.24,47.59359,-54.27349
2021-10-09 15:44:01+00:00,6.0,14.25,12.0,18.27,14.24,47.59359,-54.27349
2021-10-09 15:54:01+00:00,1.0,13.49,350.0,16.62,14.24,47.59359,-54.27349
2021-10-09 16:04:01+00:00,7.0,15.58,10.0,19.67,14.24,47.59359,-54.27349
2021-10-09 16:14:01+00:00,349.0,16.18,343.0,18.17,14.24,47.59359,-54.27349
2021-10-09 16:24:01+00:00,2.0,15.32,2.0,19.18,14.24,47.59359,-54.27349
2021-10-09 16:34:01+00:00,7.0,13.99,5.0,16.74,14.24,47.59359,-54.27349
2021-10-09 16:44:01+00:00,9.0,15.94,358.0,20.42,14.24,47.59359,-54.27349
2021-10-09 16:54:01+00:00,9.0,13.92,0.0,16.44,14.24,47.59359,-54.27349
2021-10-09 17:04:01+00:00,359.0,13.7,7.0,17.73,14.24,47.59359,-54.27349
2021-10-09 17:14:01+00:00,347.0,15.74,340.0,17.55,14.08,47.59359,-54.27349
2021-10-09 17:24:01+00:00,342.0,14.79,341.0,17.26,14.08,47.59359,-54.27349
2021-10-09 17:34:01+00:00,358.0,15.75,343.0,19.54,14.08,47.59359,-54.27349
2021-10-09 17:44:01+00:00,342.0,16.47,345.0,19.63,14.08,47.59359,-54.27349
2021-10-09 17:54:01+00:00,353.0,14.04,341.0,18.2,14.08,47.59359,-54.27349
2021-10-09 18:04:01+00:00,353.0,13.33,343.0,15.87,14.08,47.59359,-54.27349
2021-10-09 18:14:01+00:00,357.0,14.34,0.0,17.47,14.32,47.59359,-54.27349
2021-10-09 18:24:01+00:00,3.0,14.72,1.0,16.63,14.32,47.59359,-54.27349
2021-10-09 18:34:01+00:00,0.0,16.31,4.0,19.17,14.32,47.59359,-54.27349
2021-10-09 18:44:01+00:00,342.0,14.38,339.0,16.98,14.32,47.59359,-54.27349
2021-10-09 18:54:01+00:00,352.0,13.69,8.0,16.92,14.32,47.59359,-54.27349
2021-10-09 19:04:01+00:00,353.0,13.93,339.0,16.48,14.32,47.59359,-54.27349
2021-10-09 19:14:01+00:00,2.0,14.98,2.0,19.6,13.68,47.59359,-54.27349
2021-10-09 19:24:01+00:00,359.0,14.79,1.0,17.83,13.68,47.59359,-54.27349
2021-10-09 19:34:01+00:00,5.0,14.49,6.0,16.55,13.68,47.59359,-54.27349
2021-10-09 19:44:01+00:00,358.0,14.4,353.0,16.79,13.68,47.59359,-54.27349
2021-10-09 19:54:01+00:00,356.0,14.97,338.0,17.16,13.68,47.59359,-54.27349
2021-10-09 20:04:01+00:00,351.0,14.99,338.0,17.95,13.68,47.59359,-54.27349
2021-10-09 20:14:01+00:00,3.0,13.58,5.0,17.66,13.76,47.59359,-54.27349
2021-10-09 20:24:01+00:00,352.0,14.83,0.0,21.47,13.76,47.59359,-54.27349
2021-10-09 20:34:01+00:00,1.0,12.34,8.0,15.04,13.76,47.59359,-54.27349
2021-10-09 20:44:01+00:00,3.0,13.83,5.0,17.92,13.76,47.59359,-54.27349
2021-10-09 20:54:01+00:00,0.0,15.65,7.0,17.23,13.76,47.59359,-54.27349
2021-10-09 21:04:01+00:00,356.0,16.34,359.0,18.67,13.76,47.59359,-54.27349
2021-10-09 21:14:01+00:00,337.0,14.63,337.0,15.82,13.13,47.59359,-54.27349
2021-10-09 21:24:01+00:00,340.0,12.89,339.0,15.32,13.13,47.59359,-54.27349
2021-10-09 21:34:01+00:00,342.0,12.5,335.0,15.19,13.13,47.59359,-54.27349
2021-10-09 21:44:01+00:00,0.0,12.67,7.0,14.8,13.13,47.59359,-54.27349
2021-10-09 21:54:01+00:00,350.0,14.81,343.0,17.26,13.13,47.59359,-54.27349
2021-10-09 22:04:01+00:00,345.0,13.24,339.0,15.39,13.13,47.59359,-54.27349
2021-10-09 22:14:01+00:00,352.0,12.09,339.0,14.78,12.65,47.59359,-54.27349
2021-10-09 22:24:01+00:00,341.0,12.64,337.0,14.86,12.65,47.59359,-54.27349
2021-10-09 22:34:01+00:00,343.0,13.71,348.0,16.14,12.65,47.59359,-54.27349
2021-10-09 22:44:01+00:00,348.0,11.21,334.0,13.15,12.65,47.59359,-54.27349
2021-10-09 22:54:01+00:00,348.0,11.05,331.0,13.08,12.65,47.59359,-54.27349
2021-10-09 23:04:01+00:00,350.0,11.91,350.0,16.27,12.65,47.59359,-54.27349
2021-10-09 23:14:00+00:00,5.0,12.84,3.0,15.8,12.65,47.59359,-54.27349
2021-10-09 23:24:00+00:00,351.0,12.41,340.0,14.91,12.65,47.59359,-54.27349
2021-10-09 23:34:00+00:00,351.0,11.85,347.0,13.79,12.65,47.59359,-54.27349
2021-10-09 23:44:00+00:00,356.0,10.62,2.0,12.26,12.65,47.59359,-54.27349
2021-10-09 23:54:00+00:00,347.0,11.01,332.0,12.83,12.65,47.59359,-54.27349
